Printer-friendly version

IAU Minor Planet Center

Minor Planet Center

MPEC 2001-T50: 2001 TC2

The following Minor Planet Electronic Circular may be linked-to from your own Web pages, but must not otherwise be redistributed electronically.


Read MPEC 2001-T49 Read MPEC 2001-T51


M.P.E.C. 2001-T50                                Issued 2001 Oct. 13, 16:27 UT

     The Minor Planet Electronic Circulars contain information on unusual
         minor planets and routine data on comets.  They are published
   on behalf of Commission 20 of the International Astronomical Union by the
          Minor Planet Center, Smithsonian Astrophysical Observatory,
                          Cambridge, MA 02138, U.S.A.

             Prepared using the Tamkin Foundation Computer Network

                              MPC@CFA.HARVARD.EDU
          URL http://cfa-www.harvard.edu/iau/mpc.html  ISSN 1523-6714

                                   2001 TC2

Observations:
     K01T02C* C2001 10 11.43675 05 04 33.28 -08 52 34.2          19.7        704
     K01T02C  C2001 10 11.45278 05 04 34.15 -08 53 39.0          19.4        704
     K01T02C  C2001 10 11.46885 05 04 35.09 -08 54 44.0          19.9        704
     K01T02C  C2001 10 11.48489 05 04 35.98 -08 55 49.3          19.9        704
     K01T02C  C2001 10 12.11337 05 05 15.17 -09 38 32.5                      557
     K01T02C  C2001 10 12.11459 05 05 15.24 -09 38 38.6                      557
     K01T02C  C2001 10 12.11582 05 05 15.35 -09 38 42.9                      557
     K01T02C  C2001 10 12.11703 05 05 15.43 -09 38 47.3                      557
     K01T02C  C2001 10 12.60822 05 05 45.56 -10 11 59.7          19.2 R      474
     K01T02C  C2001 10 12.60984 05 05 45.62 -10 12 05.7          19.1 R      474
     K01T02C  C2001 10 12.62245 05 05 46.34 -10 12 57.7          18.8 R      474
     K01T02C  C2001 10 13.06523 05 06 12.59 -10 43 51.8          18.7 R      046
     K01T02C  C2001 10 13.06637 05 06 12.56 -10 43 58.3                      046
     K01T02C  C2001 10 13.06782 05 06 12.68 -10 44 04.5                      046
     K01T02C  C2001 10 13.06873 05 06 12.71 -10 44 07.2                      046
     K01T02C  C2001 10 13.06963 05 06 12.76 -10 44 12.4                      046
     K01T02C  C2001 10 13.07050 05 06 12.77 -10 44 13.9                      046
     K01T02C WC2001 10 13.07174 05 06 12.84 -10 44 20.0                      557
     K01T02C  C2001 10 13.07297 05 06 12.90 -10 44 26.5          19.4 V      557

Observer details:
046 Klet.  Observers J. Ticha, M. Tichy.  0.57-m f/5.2 reflector + CCD.
474 Mount John Observatory, Lake Tekapo.  Observer A. C. Gilmore.
557 Ondrejov.  Observers P. Pravec, P. Kusnirak.  0.65-m f/3.6 reflector + CCD.
704 Lincoln Laboratory ETS, New Mexico.  Observers M. Blythe, F. Shelly,
    M. Bezpalko, R. Huber, L. Manguso, S. Adams, J. Piscitelli.  Measurers
    J. Stuart, R. Sayer, J. B. Evans, H. Viggh.  1.0-m f/2.15 reflector + CCD.

Orbital elements:
2001 TC2
Epoch 2001 Sept. 28.0 TT = JDT 2452180.5                Marsden
M 214.63943              (2000.0)            P               Q
n   0.84148920     Peri.  351.72199     -0.98891874     +0.07231999
a   1.1111440      Node   194.48734     -0.08807134     -0.98883668
e   0.2252253      Incl.   31.21576     -0.11951223     +0.13027603
P   1.17           H   18.6           G   0.15
From 19 observations 2001 Oct. 11-13.

Ephemeris:
2001 TC2                 a,e,i = 1.11, 0.23, 31                  q = 0.8609
Date    TT    R. A. (2000) Decl.     Delta      r     Elong.  Phase     V
2001 10 08    05 00.71   -05 06.3    0.509    1.315   117.5    42.4    19.4
2001 10 13    05 06.14   -10 39.1    0.486    1.305   119.1    41.9    19.2
2001 10 18    05 10.49   -16 33.9    0.469    1.295   119.9    41.9    19.1
2001 10 23    05 13.63   -22 41.5    0.457    1.284   119.7    42.3    19.1
2001 10 28    05 15.45   -28 50.8    0.450    1.272   118.6    43.3    19.1
2001 11 02    05 15.83   -34 50.0    0.450    1.259   116.6    44.8    19.1
2001 11 07    05 14.63   -40 29.0    0.453    1.246   113.9    46.6    19.1
2001 11 12    05 11.73   -45 39.5    0.461    1.232   110.8    48.7    19.2
2001 11 17    05 07.03   -50 16.3    0.472    1.217   107.5    50.8    19.3
2001 11 22    05 00.57   -54 16.8    0.484    1.201   104.1    52.9    19.4
2001 11 27    04 52.44   -57 41.5    0.498    1.185   100.7    54.9    19.5
2001 12 02    04 42.84   -60 32.3    0.511    1.168    97.5    56.8    19.5
2001 12 07    04 32.03   -62 52.0    0.524    1.151    94.4    58.6    19.6
2001 12 12    04 20.35   -64 44.1    0.536    1.133    91.5    60.3    19.7
2001 12 17    04 08.26   -66 11.9    0.545    1.115    88.8    61.9    19.7
2001 12 22    03 56.21   -67 19.5    0.552    1.097    86.3    63.5    19.8
2001 12 27    03 44.54   -68 11.0    0.557    1.078    84.0    65.1    19.8
2002 01 01    03 33.43   -68 50.2    0.558    1.059    81.8    66.8    19.8
2002 01 06    03 22.88   -69 20.1    0.556    1.040    79.8    68.5    19.8
2002 01 11    03 12.79   -69 43.4    0.550    1.022    78.0    70.3    19.8
2002 01 16    03 02.9    -70 02.3    0.540    1.003    76.2    72.3    19.8
2002 01 21    02 52.9    -70 18.7    0.526    0.985    74.6    74.4    19.8
2002 01 26    02 41.9    -70 34.0    0.508    0.967    73.0    76.8    19.7
2002 01 31    02 29.2    -70 48.1    0.487    0.951    71.5    79.4    19.7
2002 02 05    02 13.6    -70 59.2    0.461    0.935    70.0    82.4    19.7
2002 02 10    01 53.9    -71 03.1    0.433    0.920    68.3    85.7    19.6
2002 02 15    01 28.6    -70 51.8    0.401    0.906    66.5    89.5    19.6
2002 02 20    00 56.8    -70 10.6    0.367    0.894    64.4    93.8    19.5
2002 02 25    00 18.87   -68 35.1    0.331    0.883    61.9    98.8    19.5
2002 03 02    23 37.74   -65 29.3    0.295    0.875    58.7   104.5    19.5
2002 03 07    22 58.32   -60 09.7    0.261    0.868    54.8   111.0    19.6
2002 03 12    22 24.94   -51 53.7    0.232    0.864    50.1   118.0    19.8
2002 03 17    21 59.45   -40 19.7    0.211    0.861    45.7   124.2    20.1
2002 03 22    21 41.60   -26 04.4    0.202    0.861    43.4   127.3    20.3
2002 03 27    21 30.19   -11 05.9    0.208    0.863    44.9   125.3    20.1
2002 04 01    21 23.89   +02 20.9    0.228    0.868    49.1   119.4    19.9
2002 04 06    21 21.49   +13 11.6    0.258    0.874    53.9   112.3    19.7
2002 04 11    21 22.00   +21 32.3    0.294    0.882    58.1   105.5    19.6
2002 04 16    21 24.65   +27 55.5    0.335    0.893    61.4    99.4    19.6
2002 04 21    21 28.87   +32 53.2    0.376    0.905    63.9    94.2    19.6
2002 04 26    21 34.27   +36 49.9    0.417    0.918    65.9    89.6    19.7
2002 05 01    21 40.54   +40 03.0    0.457    0.933    67.4    85.6    19.8
2002 05 06    21 47.41   +42 44.8    0.495    0.949    68.7    82.2    19.8
2002 05 11    21 54.65   +45 03.2    0.531    0.966    69.9    79.1    19.9
2002 05 16    22 02.07   +47 03.9    0.563    0.983    70.9    76.3    20.0
2002 05 21    22 09.54   +48 50.5    0.593    1.001    71.9    73.9    20.0
2002 05 26    22 16.96   +50 26.0    0.618    1.020    72.9    71.7    20.1
2002 05 31    22 24.22   +51 52.5    0.640    1.039    73.9    69.7    20.2
2002 06 05    22 31.20   +53 11.7    0.659    1.057    75.0    68.0    20.2
2002 06 10    22 37.79   +54 24.4    0.673    1.076    76.2    66.4    20.2
2002 06 15    22 43.87   +55 31.3    0.684    1.095    77.5    64.9    20.3
2002 06 20    22 49.33   +56 32.5    0.691    1.113    78.9    63.6    20.3
2002 06 25    22 54.09   +57 28.2    0.694    1.132    80.5    62.3    20.3
2002 06 30    22 58.01   +58 18.5    0.693    1.149    82.1    61.2    20.3
2002 07 05    23 00.95   +59 03.2    0.689    1.167    84.0    60.1    20.3
2002 07 10    23 02.74   +59 41.5    0.682    1.184    85.9    59.0    20.3
2002 07 15    23 03.23   +60 12.1    0.672    1.200    88.1    57.9    20.2
2002 07 20    23 02.32   +60 33.7    0.658    1.215    90.5    56.7    20.2
2002 07 25    22 59.90   +60 44.4    0.642    1.230    93.1    55.5    20.1
2002 07 30    22 55.90   +60 42.0    0.624    1.245    95.8    54.2    20.0
2002 08 04    22 50.31   +60 23.3    0.603    1.258    98.9    52.8    19.9
2002 08 09    22 43.24   +59 44.4    0.581    1.271   102.2    51.2    19.8
2002 08 14    22 34.97   +58 40.6    0.558    1.283   105.8    49.5    19.7
2002 08 19    22 25.90   +57 07.1    0.535    1.294   109.6    47.5    19.6
2002 08 24    22 16.55   +54 59.0    0.512    1.304   113.8    45.2    19.4
2002 08 29    22 07.42   +52 11.7    0.490    1.314   118.1    42.7    19.3
2002 09 03    21 59.02   +48 41.4    0.470    1.323   122.6    40.0    19.1
2002 09 08    21 51.80   +44 26.4    0.453    1.330   127.1    37.2    19.0
2002 09 13    21 46.09   +39 28.8    0.440    1.337   131.1    34.5    18.9
2002 09 18    21 42.07   +33 55.3    0.432    1.343   134.4    32.3    18.8
2002 09 23    21 39.76   +27 57.2    0.431    1.349   136.4    30.9    18.7
2002 09 28    21 39.09   +21 49.0    0.436    1.353   136.7    30.5    18.8
2002 10 03    21 39.97   +15 46.3    0.448    1.356   135.3    31.3    18.9
2002 10 08    21 42.26   +10 02.9    0.467    1.359   132.5    32.8    19.0
2002 10 13    21 45.83   +04 49.3    0.491    1.361   128.8    34.9    19.2
2002 10 18    21 50.52   +00 11.0    0.521    1.361   124.5    37.1    19.4
2002 10 23    21 56.17   -03 50.6    0.555    1.361   120.1    39.2    19.6
2002 10 28    22 02.65   -07 16.8    0.593    1.360   115.7    41.2    19.7
2002 11 02    22 09.84   -10 10.4    0.633    1.358   111.4    42.9    19.9
2002 11 07    22 17.66   -12 34.8    0.675    1.355   107.4    44.3    20.1
2002 11 12    22 26.03   -14 33.4    0.718    1.352   103.5    45.4    20.3
2002 11 17    22 34.85   -16 09.7    0.762    1.347    99.8    46.3    20.4
2002 11 22    22 44.06   -17 26.7    0.805    1.341    96.3    47.0    20.5
2002 11 27    22 53.61   -18 27.1    0.849    1.335    93.0    47.6    20.7
2002 12 02    23 03.45   -19 12.9    0.891    1.328    89.9    48.0    20.8
2002 12 07    23 13.57   -19 46.2    0.932    1.320    86.9    48.2    20.9
2002 12 12    23 23.93   -20 08.4    0.972    1.311    84.1    48.4    20.9
2002 12 17    23 34.51   -20 21.0    1.010    1.301    81.4    48.4    21.0
2002 12 22    23 45.29   -20 25.2    1.046    1.290    78.9    48.4    21.1

Brian G. Marsden             (C) Copyright 2001 MPC           M.P.E.C. 2001-T50

Read MPEC 2001-T49 Read MPEC 2001-T51


Our Web policy. Index to the CBAT/MPC/ICQ pages.


Valid HTML 4.01!